sat.trackr.live / text

‹ back to catalog

TIANYI A

NORAD 64048 · 2025-103A

PAYLOAD ACTIVE UNKNOWN

§ Identity

Operator
Country
PRC
Launch date
2025-05-17
Launch site
JSC
Launch vehicle
Mass (kg)
RCS (m²)

External: N2YO · Heavens-Above · Gunter

§ Orbital elements

Epoch: 2026-09-21T22:25:03.436320Z

Period
94.79 min
Inclination
97.4115°
Eccentricity
0.0001581
Mean motion
15.19173116 rev/d
Perigee alt
507.2 km
Apogee alt
509.4 km
Semi-major
6,886.5 km
B*
5.9410e-5
RAAN
335.6721°
Arg perigee
91.5486°
Mean anomaly
268.5930°
Rev number
7,476

§ Raw data

TIANYI A1 64048U 25103A   26264.93406755  .00001182  00000+0  59410-4 0  99962 64048  97.4115 335.6721 0001581  91.5486 268.5930 15.19173116 74768

JSON: /api/v1/satellites/64048 · /tle

For live sub-satellite position, see the globe view (requires WebGL).

§ Visibility from observer

Set your observer location to see the next 7 days of passes ≥ 10°. The values pass through the URL so the page stays shareable.

No JS? Fill the form by hand. The geolocation button needs JavaScript.